M I D A S
Marine Information and Data Acquisition System
Tripno 1281 of the Zeeleeuw from 2007-05-31 07:14:18 to 2007-05-31 14:33:15
Back to CruiseResearch ActivitiesStationsMapUnderway DataData graphs

EquipmentUnitsComments
TimeDGPSUTC
LatitudeDGPSDM.mWGS84
LongitudeDGPSDM.mWGS84
SpeedMeteo Stationm/sRelative wind speed
DirectionMeteo StationdegRelative wind direction
TemperatureMeteo Stationdeg CelciusAir temperature
PressureMeteo StationPaAtmospheric pressure
HumidityMeteo Station%Relative humidity
Missing or incorrect values are displayed as -999
Metereological data collected by the RV Zeeleeuw from 2007-05-31 07:16:55 to 2007-05-31 14:42:46
                                                                                    Next 1000 lines
Time Latitude Longitude Speed Direction Temperature Pressure Humidity
2007-05-31 07:17:05 51°13.597 2°56.093 -999 -999 -999 -999 -999
2007-05-31 07:17:10 51°13.598 2°56.091 -999 -999 -999 -999 -999
2007-05-31 07:17:15 51°13.599 2°56.088 -999 -999 -999 -999 -999
2007-05-31 07:17:20 51°13.599 2°56.085 -999 -999 -999 -999 -999
2007-05-31 07:17:25 51°13.601 2°56.081 -999 -999 -999 -999 -999
2007-05-31 07:17:30 51°13.602 2°56.076 -999 -999 -999 -999 -999
2007-05-31 07:17:35 51°13.604 2°56.071 -999 -999 -999 -999 -999
2007-05-31 07:17:40 51°13.605 2°56.065 -999 -999 -999 -999 -999
2007-05-31 07:17:45 51°13.607 2°56.06 -999 -999 -999 -999 -999
2007-05-31 07:17:50 51°13.609 2°56.053 -999 -999 -999 -999 -999
2007-05-31 07:17:55 51°13.611 2°56.047 -999 -999 -999 -999 -999
2007-05-31 07:18:00 51°13.613 2°56.04 -999 -999 -999 -999 -999
2007-05-31 07:18:05 51°13.616 2°56.033 -999 -999 -999 -999 -999
2007-05-31 07:18:10 51°13.618 2°56.026 -999 -999 -999 -999 -999
2007-05-31 07:18:15 51°13.621 2°56.018 -999 -999 -999 -999 -999
2007-05-31 07:18:20 51°13.624 2°56.01 -999 -999 -999 -999 -999
2007-05-31 07:18:25 51°13.626 2°56.002 -999 -999 -999 -999 -999
2007-05-31 07:18:30 51°13.629 2°55.993 -999 -999 -999 -999 -999
2007-05-31 07:18:35 51°13.633 2°55.985 -999 -999 -999 -999 -999
2007-05-31 07:18:40 51°13.636 2°55.976 -999 -999 -999 -999 -999
2007-05-31 07:18:45 51°13.639 2°55.967 -999 -999 -999 -999 -999
2007-05-31 07:18:50 51°13.643 2°55.958 -999 -999 -999 -999 -999
2007-05-31 07:18:55 51°13.646 2°55.949 -999 -999 -999 -999 -999
2007-05-31 07:19:00 51°13.65 2°55.94 -999 -999 -999 -999 -999
2007-05-31 07:19:05 51°13.653 2°55.931 -999 -999 -999 -999 -999
2007-05-31 07:19:10 51°13.657 2°55.922 -999 -999 -999 -999 -999
2007-05-31 07:19:15 51°13.66 2°55.913 -999 -999 -999 -999 -999
2007-05-31 07:19:20 51°13.664 2°55.904 -999 -999 -999 -999 -999
2007-05-31 07:19:25 51°13.667 2°55.896 -999 -999 -999 -999 -999
2007-05-31 07:19:30 51°13.669 2°55.887 -999 -999 -999 -999 -999
2007-05-31 07:19:35 51°13.672 2°55.879 -999 -999 -999 -999 -999
2007-05-31 07:19:40 51°13.675 2°55.87 -999 -999 -999 -999 -999
2007-05-31 07:19:45 51°13.677 2°55.862 -999 -999 -999 -999 -999
2007-05-31 07:19:50 51°13.679 2°55.853 -999 -999 -999 -999 -999
2007-05-31 07:19:55 51°13.681 2°55.845 -999 -999 -999 -999 -999
2007-05-31 07:20:00 51°13.683 2°55.837 -999 -999 -999 -999 -999
2007-05-31 07:20:05 51°13.684 2°55.829 -999 -999 -999 -999 -999
2007-05-31 07:20:10 51°13.685 2°55.822 -999 -999 -999 -999 -999
2007-05-31 07:20:15 51°13.686 2°55.815 -999 -999 -999 -999 -999
2007-05-31 07:20:20 51°13.687 2°55.807 -999 -999 -999 -999 -999
2007-05-31 07:20:25 51°13.687 2°55.8 -999 -999 -999 -999 -999
2007-05-31 07:20:30 51°13.688 2°55.794 -999 -999 -999 -999 -999
2007-05-31 07:20:35 51°13.689 2°55.787 -999 -999 -999 -999 -999
2007-05-31 07:20:40 51°13.689 2°55.78 -999 -999 -999 -999 -999
2007-05-31 07:20:45 51°13.689 2°55.774 -999 -999 -999 -999 -999
2007-05-31 07:20:50 51°13.69 2°55.767 -999 -999 -999 -999 -999
2007-05-31 07:20:55 51°13.69 2°55.761 -999 -999 -999 -999 -999
2007-05-31 07:21:00 51°13.69 2°55.756 -999 -999 -999 -999 -999
2007-05-31 07:21:05 51°13.69 2°55.75 -999 -999 -999 -999 -999
2007-05-31 07:21:10 51°13.69 2°55.745 -999 -999 -999 -999 -999
2007-05-31 07:21:15 51°13.69 2°55.741 -999 -999 -999 -999 -999
2007-05-31 07:21:20 51°13.69 2°55.737 -999 -999 -999 -999 -999
2007-05-31 07:21:25 51°13.689 2°55.733 -999 -999 -999 -999 -999
2007-05-31 07:21:30 51°13.689 2°55.73 -999 -999 -999 -999 -999
2007-05-31 07:21:35 51°13.689 2°55.728 -999 -999 -999 -999 -999
2007-05-31 07:21:40 51°13.688 2°55.726 -999 -999 -999 -999 -999
2007-05-31 07:21:45 51°13.688 2°55.724 -999 -999 -999 -999 -999
2007-05-31 07:21:50 51°13.689 2°55.722 -999 -999 -999 -999 -999
2007-05-31 07:21:55 51°13.689 2°55.722 -999 -999 -999 -999 -999
2007-05-31 07:22:00 51°13.69 2°55.722 -999 -999 -999 -999 -999
2007-05-31 07:22:05 51°13.691 2°55.722 -999 -999 -999 -999 -999
2007-05-31 07:22:10 51°13.692 2°55.723 -999 -999 -999 -999 -999
2007-05-31 07:22:15 51°13.694 2°55.724 -999 -999 -999 -999 -999
2007-05-31 07:22:20 51°13.695 2°55.725 -999 -999 -999 -999 -999
2007-05-31 07:22:25 51°13.697 2°55.725 -999 -999 -999 -999 -999
2007-05-31 07:22:30 51°13.698 2°55.726 -999 -999 -999 -999 -999
2007-05-31 07:22:35 51°13.7 2°55.727 -999 -999 -999 -999 -999
2007-05-31 07:22:40 51°13.702 2°55.728 -999 -999 -999 -999 -999
2007-05-31 07:22:45 51°13.704 2°55.728 -999 -999 -999 -999 -999
2007-05-31 07:22:50 51°13.707 2°55.728 -999 -999 -999 -999 -999
2007-05-31 07:22:55 51°13.709 2°55.728 -999 -999 -999 -999 -999
2007-05-31 07:23:00 51°13.712 2°55.728 -999 -999 -999 -999 -999
2007-05-31 07:23:05 51°13.715 2°55.727 -999 -999 -999 -999 -999
2007-05-31 07:23:10 51°13.718 2°55.725 -999 -999 -999 -999 -999
2007-05-31 07:23:15 51°13.722 2°55.724 -999 -999 -999 -999 -999
2007-05-31 07:23:20 51°13.725 2°55.721 -999 -999 -999 -999 -999
2007-05-31 07:23:25 51°13.729 2°55.718 -999 -999 -999 -999 -999
2007-05-31 07:23:30 51°13.734 2°55.715 -999 -999 -999 -999 -999
2007-05-31 07:23:35 51°13.739 2°55.71 -999 -999 -999 -999 -999
2007-05-31 07:23:40 51°13.745 2°55.705 -999 -999 -999 -999 -999
2007-05-31 07:23:45 51°13.752 2°55.699 -999 -999 -999 -999 -999
2007-05-31 07:23:50 51°13.759 2°55.692 -999 -999 -999 -999 -999
2007-05-31 07:23:55 51°13.767 2°55.686 -999 -999 -999 -999 -999
2007-05-31 07:24:00 51°13.775 2°55.679 -999 -999 -999 -999 -999
2007-05-31 07:24:05 51°13.784 2°55.672 -999 -999 -999 -999 -999
2007-05-31 07:24:10 51°13.794 2°55.664 -999 -999 -999 -999 -999
2007-05-31 07:24:15 51°13.803 2°55.656 -999 -999 -999 -999 -999
2007-05-31 07:24:20 51°13.813 2°55.649 -999 -999 -999 -999 -999
2007-05-31 07:24:25 51°13.824 2°55.641 -999 -999 -999 -999 -999
2007-05-31 07:24:30 51°13.834 2°55.633 -999 -999 -999 -999 -999
2007-05-31 07:24:35 51°13.845 2°55.625 -999 -999 -999 -999 -999
2007-05-31 07:24:40 51°13.856 2°55.617 -999 -999 -999 -999 -999
2007-05-31 07:24:45 51°13.868 2°55.609 -999 -999 -999 -999 -999
2007-05-31 07:24:50 51°13.879 2°55.601 -999 -999 -999 -999 -999
2007-05-31 07:24:55 51°13.891 2°55.592 -999 -999 -999 -999 -999
2007-05-31 07:25:00 51°13.903 2°55.584 -999 -999 -999 -999 -999
2007-05-31 07:25:05 51°13.914 2°55.575 -999 -999 -999 -999 -999
2007-05-31 07:25:10 51°13.926 2°55.567 -999 -999 -999 -999 -999
2007-05-31 07:25:15 51°13.938 2°55.558 -999 -999 -999 -999 -999
2007-05-31 07:25:20 51°13.95 2°55.549 -999 -999 -999 -999 -999
2007-05-31 07:25:25 51°13.962 2°55.54 -999 -999 -999 -999 -999
2007-05-31 07:25:30 51°13.974 2°55.532 -999 -999 -999 -999 -999
2007-05-31 07:25:35 51°13.985 2°55.524 -999 -999 -999 -999 -999
2007-05-31 07:25:40 51°13.996 2°55.516 -999 -999 -999 -999 -999
2007-05-31 07:25:45 51°14.007 2°55.508 -999 -999 -999 -999 -999
2007-05-31 07:25:50 51°14.017 2°55.501 -999 -999 -999 -999 -999
2007-05-31 07:25:55 51°14.028 2°55.494 -999 -999 -999 -999 -999
2007-05-31 07:26:00 51°14.038 2°55.486 -999 -999 -999 -999 -999
2007-05-31 07:26:05 51°14.048 2°55.479 -999 -999 -999 -999 -999
2007-05-31 07:26:10 51°14.057 2°55.472 -999 -999 -999 -999 -999
2007-05-31 07:26:15 51°14.067 2°55.465 -999 -999 -999 -999 -999
2007-05-31 07:26:20 51°14.076 2°55.458 -999 -999 -999 -999 -999
2007-05-31 07:26:25 51°14.085 2°55.45 -999 -999 -999 -999 -999
2007-05-31 07:26:30 51°14.094 2°55.443 -999 -999 -999 -999 -999
2007-05-31 07:26:35 51°14.103 2°55.436 -999 -999 -999 -999 -999
2007-05-31 07:26:40 51°14.112 2°55.429 -999 -999 -999 -999 -999
2007-05-31 07:26:45 51°14.121 2°55.422 -999 -999 -999 -999 -999
2007-05-31 07:26:50 51°14.13 2°55.414 -999 -999 -999 -999 -999
2007-05-31 07:26:55 51°14.14 2°55.407 -999 -999 -999 -999 -999
2007-05-31 07:27:00 51°14.15 2°55.399 -999 -999 -999 -999 -999
2007-05-31 07:27:05 51°14.16 2°55.39 -999 -999 -999 -999 -999
2007-05-31 07:27:10 51°14.17 2°55.381 -999 -999 -999 -999 -999
2007-05-31 07:27:15 51°14.18 2°55.372 -999 -999 -999 -999 -999
2007-05-31 07:27:20 51°14.189 2°55.362 -999 -999 -999 -999 -999
2007-05-31 07:27:25 51°14.199 2°55.352 -999 -999 -999 -999 -999
2007-05-31 07:27:30 51°14.209 2°55.341 -999 -999 -999 -999 -999
2007-05-31 07:27:35 51°14.218 2°55.329 -999 -999 -999 -999 -999
2007-05-31 07:27:40 51°14.228 2°55.317 -999 -999 -999 -999 -999
2007-05-31 07:27:45 51°14.237 2°55.304 -999 -999 -999 -999 -999
2007-05-31 07:27:50 51°14.246 2°55.29 -999 -999 -999 -999 -999
2007-05-31 07:27:55 51°14.255 2°55.275 -999 -999 -999 -999 -999
2007-05-31 07:28:00 51°14.264 2°55.259 -999 -999 -999 -999 -999
2007-05-31 07:28:05 51°14.273 2°55.243 -999 -999 -999 -999 -999
2007-05-31 07:28:10 51°14.282 2°55.227 -999 -999 -999 -999 -999
2007-05-31 07:28:15 51°14.291 2°55.209 -999 -999 -999 -999 -999
2007-05-31 07:28:20 51°14.3 2°55.192 -999 -999 -999 -999 -999
2007-05-31 07:28:25 51°14.309 2°55.174 -999 -999 -999 -999 -999
2007-05-31 07:28:30 51°14.319 2°55.155 -999 -999 -999 -999 -999
2007-05-31 07:28:35 51°14.328 2°55.136 -999 -999 -999 -999 -999
2007-05-31 07:28:40 51°14.339 2°55.117 -999 -999 -999 -999 -999
2007-05-31 07:28:44 51°14.346 2°55.102 -999 -999 -999 -999 -999
2007-05-31 07:28:50 51°14.358 2°55.078 -999 -999 -999 -999 -999
2007-05-31 07:28:54 51°14.365 2°55.062 -999 -999 -999 -999 -999
2007-05-31 07:28:59 51°14.374 2°55.041 -999 -999 -999 -999 -999
2007-05-31 07:29:04 51°14.383 2°55.02 -999 -999 -999 -999 -999
2007-05-31 07:29:10 51°14.394 2°54.995 -999 -999 -999 -999 -999
2007-05-31 07:29:15 51°14.403 2°54.973 -999 -999 -999 -999 -999
2007-05-31 07:29:20 51°14.412 2°54.951 -999 -999 -999 -999 -999
2007-05-31 07:29:25 51°14.42 2°54.928 -999 -999 -999 -999 -999
2007-05-31 07:29:30 51°14.428 2°54.905 -999 -999 -999 -999 -999
2007-05-31 07:29:35 51°14.437 2°54.881 -999 -999 -999 -999 -999
2007-05-31 07:29:40 51°14.446 2°54.857 -999 -999 -999 -999 -999
2007-05-31 07:29:45 51°14.455 2°54.833 -999 -999 -999 -999 -999
2007-05-31 07:29:50 51°14.464 2°54.808 -999 -999 -999 -999 -999
2007-05-31 07:29:55 51°14.474 2°54.783 -999 -999 -999 -999 -999
2007-05-31 07:30:00 51°14.483 2°54.758 -999 -999 -999 -999 -999
2007-05-31 07:30:05 51°14.493 2°54.733 -999 -999 -999 -999 -999
2007-05-31 07:30:10 51°14.502 2°54.707 -999 -999 -999 -999 -999
2007-05-31 07:30:15 51°14.512 2°54.681 -999 -999 -999 -999 -999
2007-05-31 07:30:20 51°14.521 2°54.656 -999 -999 -999 -999 -999
2007-05-31 07:30:25 51°14.53 2°54.63 -999 -999 -999 -999 -999
2007-05-31 07:30:30 51°14.539 2°54.604 -999 -999 -999 -999 -999
2007-05-31 07:30:35 51°14.548 2°54.578 -999 -999 -999 -999 -999
2007-05-31 07:30:40 51°14.557 2°54.552 -999 -999 -999 -999 -999
2007-05-31 07:30:45 51°14.567 2°54.525 -999 -999 -999 -999 -999
2007-05-31 07:30:49 51°14.574 2°54.504 -999 -999 -999 -999 -999
2007-05-31 07:30:55 51°14.585 2°54.473 -999 -999 -999 -999 -999
2007-05-31 07:31:00 51°14.594 2°54.447 -999 -999 -999 -999 -999
2007-05-31 07:31:05 51°14.604 2°54.421 -999 -999 -999 -999 -999
2007-05-31 07:31:10 51°14.613 2°54.396 -999 -999 -999 -999 -999
2007-05-31 07:31:15 51°14.623 2°54.37 -999 -999 -999 -999 -999
2007-05-31 07:31:20 51°14.633 2°54.344 -999 -999 -999 -999 -999
2007-05-31 07:31:25 51°14.643 2°54.319 -999 -999 -999 -999 -999
2007-05-31 07:31:30 51°14.652 2°54.293 -999 -999 -999 -999 -999
2007-05-31 07:31:35 51°14.66 2°54.266 -999 -999 -999 -999 -999
2007-05-31 07:31:40 51°14.667 2°54.239 -999 -999 -999 -999 -999
2007-05-31 07:31:45 51°14.674 2°54.211 -999 -999 -999 -999 -999
2007-05-31 07:31:50 51°14.68 2°54.183 -999 -999 -999 -999 -999
2007-05-31 07:31:55 51°14.686 2°54.154 -999 -999 -999 -999 -999
2007-05-31 07:32:00 51°14.69 2°54.125 -999 -999 -999 -999 -999
2007-05-31 07:32:05 51°14.694 2°54.095 -999 -999 -999 -999 -999
2007-05-31 07:32:10 51°14.697 2°54.066 -999 -999 -999 -999 -999
2007-05-31 07:32:15 51°14.699 2°54.036 -999 -999 -999 -999 -999
2007-05-31 07:32:20 51°14.701 2°54.006 -999 -999 -999 -999 -999
2007-05-31 07:32:25 51°14.703 2°53.975 -999 -999 -999 -999 -999
2007-05-31 07:32:30 51°14.705 2°53.945 -999 -999 -999 -999 -999
2007-05-31 07:32:35 51°14.706 2°53.915 -999 -999 -999 -999 -999
2007-05-31 07:32:40 51°14.708 2°53.885 -999 -999 -999 -999 -999
2007-05-31 07:32:45 51°14.71 2°53.855 -999 -999 -999 -999 -999
2007-05-31 07:32:49 51°14.712 2°53.831 -999 -999 -999 -999 -999
2007-05-31 07:32:55 51°14.715 2°53.795 -999 -999 -999 -999 -999
2007-05-31 07:33:00 51°14.718 2°53.765 -999 -999 -999 -999 -999
2007-05-31 07:33:05 51°14.721 2°53.735 -999 -999 -999 -999 -999
2007-05-31 07:33:09 51°14.723 2°53.711 -999 -999 -999 -999 -999
2007-05-31 07:33:15 51°14.727 2°53.676 -999 -999 -999 -999 -999
2007-05-31 07:33:20 51°14.729 2°53.646 -999 -999 -999 -999 -999
2007-05-31 07:33:25 51°14.732 2°53.616 -999 -999 -999 -999 -999
2007-05-31 07:33:30 51°14.734 2°53.585 -999 -999 -999 -999 -999
2007-05-31 07:33:35 51°14.737 2°53.555 -999 -999 -999 -999 -999
2007-05-31 07:33:40 51°14.74 2°53.525 -999 -999 -999 -999 -999
2007-05-31 07:33:45 51°14.742 2°53.495 -999 -999 -999 -999 -999
2007-05-31 07:33:50 51°14.745 2°53.465 -999 -999 -999 -999 -999
2007-05-31 07:33:55 51°14.748 2°53.434 -999 -999 -999 -999 -999
2007-05-31 07:34:00 51°14.751 2°53.404 -999 -999 -999 -999 -999
2007-05-31 07:34:05 51°14.754 2°53.374 -999 -999 -999 -999 -999
2007-05-31 07:34:10 51°14.757 2°53.344 -999 -999 -999 -999 -999
2007-05-31 07:34:15 51°14.759 2°53.314 -999 -999 -999 -999 -999
2007-05-31 07:34:20 51°14.761 2°53.283 -999 -999 -999 -999 -999
2007-05-31 07:34:25 51°14.763 2°53.253 -999 -999 -999 -999 -999
2007-05-31 07:34:30 51°14.765 2°53.223 -999 -999 -999 -999 -999
2007-05-31 07:34:35 51°14.767 2°53.193 -999 -999 -999 -999 -999
2007-05-31 07:34:40 51°14.768 2°53.163 -999 -999 -999 -999 -999
2007-05-31 07:34:45 51°14.77 2°53.133 -999 -999 -999 -999 -999
2007-05-31 07:34:50 51°14.772 2°53.103 -999 -999 -999 -999 -999
2007-05-31 07:34:55 51°14.774 2°53.074 -999 -999 -999 -999 -999
2007-05-31 07:35:00 51°14.776 2°53.043 -999 -999 -999 -999 -999
2007-05-31 07:35:05 51°14.778 2°53.013 -999 -999 -999 -999 -999
2007-05-31 07:35:10 51°14.781 2°52.983 -999 -999 -999 -999 -999
2007-05-31 07:35:15 51°14.783 2°52.953 -999 -999 -999 -999 -999
2007-05-31 07:35:20 51°14.785 2°52.923 -999 -999 -999 -999 -999
2007-05-31 07:35:25 51°14.787 2°52.892 -999 -999 -999 -999 -999
2007-05-31 07:35:29 51°14.788 2°52.868 -999 -999 -999 -999 -999
2007-05-31 07:35:35 51°14.789 2°52.831 -999 -999 -999 -999 -999
2007-05-31 07:35:40 51°14.79 2°52.8 -999 -999 -999 -999 -999
2007-05-31 07:35:45 51°14.79 2°52.769 -999 -999 -999 -999 -999
2007-05-31 07:35:50 51°14.79 2°52.738 -999 -999 -999 -999 -999
2007-05-31 07:35:55 51°14.789 2°52.707 -999 -999 -999 -999 -999
2007-05-31 07:35:59 51°14.789 2°52.682 -999 -999 -999 -999 -999
2007-05-31 07:36:05 51°14.788 2°52.644 -999 -999 -999 -999 -999
2007-05-31 07:36:10 51°14.788 2°52.613 -999 -999 -999 -999 -999
2007-05-31 07:36:15 51°14.788 2°52.582 -999 -999 -999 -999 -999
2007-05-31 07:36:20 51°14.788 2°52.551 -999 -999 -999 -999 -999
2007-05-31 07:36:25 51°14.789 2°52.52 -999 -999 -999 -999 -999
2007-05-31 07:36:30 51°14.789 2°52.488 -999 -999 -999 -999 -999
2007-05-31 07:36:35 51°14.79 2°52.457 -999 -999 -999 -999 -999
2007-05-31 07:36:40 51°14.791 2°52.426 -999 -999 -999 -999 -999
2007-05-31 07:36:44 51°14.791 2°52.401 -999 -999 -999 -999 -999
2007-05-31 07:36:50 51°14.792 2°52.364 -999 -999 -999 -999 -999
2007-05-31 07:36:55 51°14.793 2°52.332 -999 -999 -999 -999 -999
2007-05-31 07:37:00 51°14.793 2°52.301 -999 -999 -999 -999 -999
2007-05-31 07:37:05 51°14.793 2°52.269 -999 -999 -999 -999 -999
2007-05-31 07:37:09 51°14.793 2°52.244 -999 -999 -999 -999 -999
2007-05-31 07:37:15 51°14.793 2°52.206 -999 -999 -999 -999 -999
2007-05-31 07:37:20 51°14.793 2°52.175 -999 -999 -999 -999 -999
2007-05-31 07:37:25 51°14.793 2°52.143 -999 -999 -999 -999 -999
2007-05-31 07:37:29 51°14.793 2°52.118 -999 -999 -999 -999 -999
2007-05-31 07:37:35 51°14.793 2°52.08 -999 -999 -999 -999 -999
2007-05-31 07:37:40 51°14.793 2°52.048 -999 -999 -999 -999 -999
2007-05-31 07:37:45 51°14.793 2°52.017 -999 -999 -999 -999 -999
2007-05-31 07:37:50 51°14.794 2°51.985 -999 -999 -999 -999 -999
2007-05-31 07:37:55 51°14.794 2°51.954 -999 -999 -999 -999 -999
2007-05-31 07:38:00 51°14.795 2°51.922 -999 -999 -999 -999 -999
2007-05-31 07:38:05 51°14.796 2°51.891 -999 -999 -999 -999 -999
2007-05-31 07:38:09 51°14.797 2°51.866 -999 -999 -999 -999 -999
2007-05-31 07:38:15 51°14.797 2°51.828 -999 -999 -999 -999 -999
2007-05-31 07:38:20 51°14.798 2°51.797 -999 -999 -999 -999 -999
2007-05-31 07:38:25 51°14.798 2°51.765 -999 -999 -999 -999 -999
2007-05-31 07:38:30 51°14.799 2°51.734 -999 -999 -999 -999 -999
2007-05-31 07:38:35 51°14.799 2°51.702 -999 -999 -999 -999 -999
2007-05-31 07:38:40 51°14.799 2°51.671 -999 -999 -999 -999 -999
2007-05-31 07:38:45 51°14.8 2°51.639 -999 -999 -999 -999 -999
2007-05-31 07:38:50 51°14.8 2°51.608 -999 -999 -999 -999 -999
2007-05-31 07:38:55 51°14.801 2°51.576 -999 -999 -999 -999 -999
2007-05-31 07:39:00 51°14.802 2°51.545 -999 -999 -999 -999 -999
2007-05-31 07:39:05 51°14.802 2°51.513 -999 -999 -999 -999 -999
2007-05-31 07:39:10 51°14.803 2°51.482 -999 -999 -999 -999 -999
2007-05-31 07:39:15 51°14.803 2°51.45 -999 -999 -999 -999 -999
2007-05-31 07:39:20 51°14.804 2°51.419 -999 -999 -999 -999 -999
2007-05-31 07:39:25 51°14.804 2°51.387 -999 -999 -999 -999 -999
2007-05-31 07:39:29 51°14.805 2°51.362 -999 -999 -999 -999 -999
2007-05-31 07:39:35 51°14.805 2°51.324 -999 -999 -999 -999 -999
2007-05-31 07:39:40 51°14.805 2°51.292 -999 -999 -999 -999 -999
2007-05-31 07:39:45 51°14.805 2°51.26 -999 -999 -999 -999 -999
2007-05-31 07:39:49 51°14.806 2°51.235 -999 -999 -999 -999 -999
2007-05-31 07:39:55 51°14.806 2°51.197 -999 -999 -999 -999 -999
2007-05-31 07:40:00 51°14.807 2°51.165 -999 -999 -999 -999 -999
2007-05-31 07:40:05 51°14.807 2°51.134 -999 -999 -999 -999 -999
2007-05-31 07:40:10 51°14.808 2°51.102 -999 -999 -999 -999 -999
2007-05-31 07:40:15 51°14.808 2°51.07 -999 -999 -999 -999 -999
2007-05-31 07:40:20 51°14.809 2°51.039 -999 -999 -999 -999 -999
2007-05-31 07:40:25 51°14.809 2°51.007 -999 -999 -999 -999 -999
2007-05-31 07:40:30 51°14.81 2°50.976 -999 -999 -999 -999 -999
2007-05-31 07:40:35 51°14.811 2°50.944 -999 -999 -999 -999 -999
2007-05-31 07:40:40 51°14.811 2°50.912 -999 -999 -999 -999 -999
2007-05-31 07:40:45 51°14.811 2°50.88 -999 -999 -999 -999 -999
2007-05-31 07:40:50 51°14.811 2°50.849 -999 -999 -999 -999 -999
2007-05-31 07:40:55 51°14.81 2°50.817 -999 -999 -999 -999 -999
2007-05-31 07:41:00 51°14.808 2°50.786 -999 -999 -999 -999 -999
2007-05-31 07:41:04 51°14.806 2°50.761 -999 -999 -999 -999 -999
2007-05-31 07:41:10 51°14.802 2°50.723 -999 -999 -999 -999 -999
2007-05-31 07:41:15 51°14.798 2°50.692 -999 -999 -999 -999 -999
2007-05-31 07:41:20 51°14.794 2°50.661 -999 -999 -999 -999 -999
2007-05-31 07:41:25 51°14.79 2°50.63 -999 -999 -999 -999 -999
2007-05-31 07:41:30 51°14.786 2°50.598 -999 -999 -999 -999 -999
2007-05-31 07:41:35 51°14.781 2°50.567 -999 -999 -999 -999 -999
2007-05-31 07:41:40 51°14.776 2°50.536 -999 -999 -999 -999 -999
2007-05-31 07:41:45 51°14.772 2°50.505 -999 -999 -999 -999 -999
2007-05-31 07:41:49 51°14.768 2°50.481 -999 -999 -999 -999 -999
2007-05-31 07:41:55 51°14.762 2°50.444 -999 -999 -999 -999 -999
2007-05-31 07:42:00 51°14.757 2°50.413 -999 -999 -999 -999 -999
2007-05-31 07:42:05 51°14.752 2°50.382 -999 -999 -999 -999 -999
2007-05-31 07:42:09 51°14.748 2°50.357 -999 -999 -999 -999 -999
2007-05-31 07:42:15 51°14.742 2°50.32 -999 -999 -999 -999 -999
2007-05-31 07:42:20 51°14.737 2°50.288 -999 -999 -999 -999 -999
2007-05-31 07:42:25 51°14.733 2°50.257 -999 -999 -999 -999 -999
2007-05-31 07:42:30 51°14.729 2°50.226 -999 -999 -999 -999 -999
2007-05-31 07:42:35 51°14.724 2°50.195 -999 -999 -999 -999 -999
2007-05-31 07:42:40 51°14.72 2°50.163 -999 -999 -999 -999 -999
2007-05-31 07:42:45 51°14.716 2°50.132 -999 -999 -999 -999 -999
2007-05-31 07:42:50 51°14.712 2°50.101 -999 -999 -999 -999 -999
2007-05-31 07:42:55 51°14.708 2°50.069 -999 -999 -999 -999 -999
2007-05-31 07:43:00 51°14.703 2°50.038 -999 -999 -999 -999 -999
2007-05-31 07:43:05 51°14.699 2°50.007 -999 -999 -999 -999 -999
2007-05-31 07:43:10 51°14.695 2°49.976 -999 -999 -999 -999 -999
2007-05-31 07:43:15 51°14.69 2°49.944 -999 -999 -999 -999 -999
2007-05-31 07:43:20 51°14.686 2°49.913 -999 -999 -999 -999 -999
2007-05-31 07:43:25 51°14.682 2°49.882 -999 -999 -999 -999 -999
2007-05-31 07:43:30 51°14.678 2°49.851 -999 -999 -999 -999 -999
2007-05-31 07:43:35 51°14.673 2°49.82 -999 -999 -999 -999 -999
2007-05-31 07:43:40 51°14.669 2°49.788 -999 -999 -999 -999 -999
2007-05-31 07:43:45 51°14.665 2°49.757 -999 -999 -999 -999 -999
2007-05-31 07:43:50 51°14.66 2°49.726 -999 -999 -999 -999 -999
2007-05-31 07:43:55 51°14.656 2°49.695 -999 -999 -999 -999 -999
2007-05-31 07:44:00 51°14.652 2°49.664 -999 -999 -999 -999 -999
2007-05-31 07:44:05 51°14.647 2°49.633 -999 -999 -999 -999 -999
2007-05-31 07:44:09 51°14.644 2°49.608 -999 -999 -999 -999 -999
2007-05-31 07:44:15 51°14.639 2°49.571 -999 -999 -999 -999 -999
2007-05-31 07:44:20 51°14.634 2°49.539 -999 -999 -999 -999 -999
2007-05-31 07:44:25 51°14.63 2°49.508 -999 -999 -999 -999 -999
2007-05-31 07:44:30 51°14.626 2°49.477 -999 -999 -999 -999 -999
2007-05-31 07:44:35 51°14.622 2°49.446 -999 -999 -999 -999 -999
2007-05-31 07:44:40 51°14.618 2°49.415 -999 -999 -999 -999 -999
2007-05-31 07:44:45 51°14.613 2°49.383 -999 -999 -999 -999 -999
2007-05-31 07:44:49 51°14.61 2°49.358 -999 -999 -999 -999 -999
2007-05-31 07:44:55 51°14.605 2°49.321 -999 -999 -999 -999 -999
2007-05-31 07:45:00 51°14.6 2°49.29 -999 -999 -999 -999 -999
2007-05-31 07:45:05 51°14.596 2°49.258 -999 -999 -999 -999 -999
2007-05-31 07:45:10 51°14.592 2°49.227 -999 -999 -999 -999 -999
2007-05-31 07:45:15 51°14.588 2°49.196 -999 -999 -999 -999 -999
2007-05-31 07:45:20 51°14.584 2°49.164 -999 -999 -999 -999 -999
2007-05-31 07:45:25 51°14.579 2°49.133 -999 -999 -999 -999 -999
2007-05-31 07:45:30 51°14.575 2°49.101 -999 -999 -999 -999 -999
2007-05-31 07:45:35 51°14.571 2°49.07 -999 -999 -999 -999 -999
2007-05-31 07:45:40 51°14.567 2°49.038 -999 -999 -999 -999 -999
2007-05-31 07:45:45 51°14.562 2°49.007 -999 -999 -999 -999 -999
2007-05-31 07:45:50 51°14.558 2°48.976 -999 -999 -999 -999 -999
2007-05-31 07:45:55 51°14.554 2°48.944 -999 -999 -999 -999 -999
2007-05-31 07:46:00 51°14.55 2°48.913 -999 -999 -999 -999 -999
2007-05-31 07:46:05 51°14.545 2°48.881 -999 -999 -999 -999 -999
2007-05-31 07:46:10 51°14.541 2°48.85 -999 -999 -999 -999 -999
2007-05-31 07:46:15 51°14.537 2°48.818 -999 -999 -999 -999 -999
2007-05-31 07:46:20 51°14.533 2°48.787 -999 -999 -999 -999 -999
2007-05-31 07:46:25 51°14.529 2°48.755 -999 -999 -999 -999 -999
2007-05-31 07:46:29 51°14.526 2°48.73 -999 -999 -999 -999 -999
2007-05-31 07:46:35 51°14.521 2°48.692 -999 -999 -999 -999 -999
2007-05-31 07:46:40 51°14.516 2°48.661 -999 -999 -999 -999 -999
2007-05-31 07:46:45 51°14.512 2°48.629 -999 -999 -999 -999 -999
2007-05-31 07:46:50 51°14.508 2°48.598 -999 -999 -999 -999 -999
2007-05-31 07:46:55 51°14.504 2°48.566 -999 -999 -999 -999 -999
2007-05-31 07:47:00 51°14.499 2°48.535 -999 -999 -999 -999 -999
2007-05-31 07:47:05 51°14.495 2°48.504 -999 -999 -999 -999 -999
2007-05-31 07:47:10 51°14.491 2°48.472 -999 -999 -999 -999 -999
2007-05-31 07:47:15 51°14.486 2°48.441 -999 -999 -999 -999 -999
2007-05-31 07:47:20 51°14.481 2°48.41 -999 -999 -999 -999 -999
2007-05-31 07:47:25 51°14.476 2°48.379 -999 -999 -999 -999 -999
2007-05-31 07:47:30 51°14.471 2°48.348 -999 -999 -999 -999 -999
2007-05-31 07:47:35 51°14.466 2°48.317 -999 -999 -999 -999 -999
2007-05-31 07:47:40 51°14.462 2°48.286 -999 -999 -999 -999 -999
2007-05-31 07:47:45 51°14.456 2°48.255 -999 -999 -999 -999 -999
2007-05-31 07:47:50 51°14.451 2°48.224 -999 -999 -999 -999 -999
2007-05-31 07:47:55 51°14.447 2°48.193 -999 -999 -999 -999 -999
2007-05-31 07:48:00 51°14.442 2°48.161 -999 -999 -999 -999 -999
2007-05-31 07:48:05 51°14.437 2°48.13 -999 -999 -999 -999 -999
2007-05-31 07:48:10 51°14.433 2°48.099 -999 -999 -999 -999 -999
2007-05-31 07:48:15 51°14.428 2°48.068 -999 -999 -999 -999 -999
2007-05-31 07:48:19 51°14.424 2°48.043 -999 -999 -999 -999 -999
2007-05-31 07:48:24 51°14.419 2°48.013 -999 -999 -999 -999 -999
2007-05-31 07:48:29 51°14.415 2°47.982 -999 -999 -999 -999 -999
2007-05-31 07:48:35 51°14.409 2°47.945 -999 -999 -999 -999 -999
2007-05-31 07:48:40 51°14.403 2°47.914 -999 -999 -999 -999 -999
2007-05-31 07:48:44 51°14.4 2°47.889 -999 -999 -999 -999 -999
2007-05-31 07:48:49 51°14.395 2°47.858 -999 -999 -999 -999 -999
2007-05-31 07:48:55 51°14.389 2°47.821 -999 -999 -999 -999 -999
2007-05-31 07:49:00 51°14.384 2°47.79 -999 -999 -999 -999 -999
2007-05-31 07:49:04 51°14.38 2°47.765 -999 -999 -999 -999 -999
2007-05-31 07:49:09 51°14.376 2°47.735 -999 -999 -999 -999 -999
2007-05-31 07:49:14 51°14.371 2°47.704 -999 -999 -999 -999 -999
2007-05-31 07:49:20 51°14.365 2°47.667 -999 -999 -999 -999 -999
2007-05-31 07:49:25 51°14.36 2°47.636 -999 -999 -999 -999 -999
2007-05-31 07:49:29 51°14.357 2°47.611 -999 -999 -999 -999 -999
2007-05-31 07:49:35 51°14.351 2°47.575 -999 -999 -999 -999 -999
2007-05-31 07:49:40 51°14.346 2°47.544 -999 -999 -999 -999 -999
2007-05-31 07:49:45 51°14.341 2°47.513 -999 -999 -999 -999 -999
2007-05-31 07:49:49 51°14.337 2°47.489 -999 -999 -999 -999 -999
2007-05-31 07:49:55 51°14.331 2°47.452 -999 -999 -999 -999 -999
2007-05-31 07:49:59 51°14.327 2°47.428 -999 -999 -999 -999 -999
2007-05-31 07:50:05 51°14.321 2°47.391 -999 -999 -999 -999 -999
2007-05-31 07:50:09 51°14.318 2°47.367 -999 -999 -999 -999 -999
2007-05-31 07:50:15 51°14.312 2°47.331 -999 -999 -999 -999 -999
2007-05-31 07:50:20 51°14.307 2°47.3 -999 -999 -999 -999 -999
2007-05-31 07:50:24 51°14.304 2°47.276 -999 -999 -999 -999 -999
2007-05-31 07:50:29 51°14.299 2°47.245 -999 -999 -999 -999 -999
2007-05-31 07:50:35 51°14.294 2°47.209 -999 -999 -999 -999 -999
2007-05-31 07:50:39 51°14.29 2°47.185 -999 -999 -999 -999 -999
2007-05-31 07:50:44 51°14.285 2°47.154 -999 -999 -999 -999 -999
2007-05-31 07:50:50 51°14.28 2°47.118 -999 -999 -999 -999 -999
2007-05-31 07:50:55 51°14.275 2°47.088 -999 -999 -999 -999 -999
2007-05-31 07:51:00 51°14.27 2°47.058 -999 -999 -999 -999 -999
2007-05-31 07:51:05 51°14.266 2°47.028 -999 -999 -999 -999 -999
2007-05-31 07:51:09 51°14.262 2°47.003 -999 -999 -999 -999 -999
2007-05-31 07:51:15 51°14.257 2°46.967 -999 -999 -999 -999 -999
2007-05-31 07:51:20 51°14.252 2°46.936 -999 -999 -999 -999 -999
2007-05-31 07:51:24 51°14.249 2°46.912 -999 -999 -999 -999 -999
2007-05-31 07:51:29 51°14.245 2°46.882 -999 -999 -999 -999 -999
2007-05-31 07:51:34 51°14.241 2°46.851 -999 -999 -999 -999 -999
2007-05-31 07:51:40 51°14.235 2°46.814 -999 -999 -999 -999 -999
2007-05-31 07:51:45 51°14.231 2°46.783 -999 -999 -999 -999 -999
2007-05-31 07:51:49 51°14.228 2°46.759 -999 -999 -999 -999 -999
2007-05-31 07:51:54 51°14.223 2°46.728 -999 -999 -999 -999 -999
2007-05-31 07:51:59 51°14.219 2°46.698 -999 -999 -999 -999 -999
2007-05-31 07:52:05 51°14.212 2°46.661 -999 -999 -999 -999 -999
2007-05-31 07:52:09 51°14.208 2°46.637 -999 -999 -999 -999 -999
2007-05-31 07:52:15 51°14.201 2°46.601 -999 -999 -999 -999 -999
2007-05-31 07:52:19 51°14.197 2°46.576 -999 -999 -999 -999 -999
2007-05-31 07:52:25 51°14.19 2°46.54 -999 -999 -999 -999 -999
2007-05-31 07:52:30 51°14.184 2°46.51 -999 -999 -999 -999 -999
2007-05-31 07:52:35 51°14.178 2°46.48 -999 -999 -999 -999 -999
2007-05-31 07:52:39 51°14.173 2°46.455 -999 -999 -999 -999 -999
2007-05-31 07:52:44 51°14.168 2°46.425 -999 -999 -999 -999 -999
2007-05-31 07:52:49 51°14.162 2°46.395 -999 -999 -999 -999 -999
2007-05-31 07:52:55 51°14.156 2°46.358 -999 -999 -999 -999 -999
2007-05-31 07:53:00 51°14.15 2°46.328 -999 -999 -999 -999 -999
2007-05-31 07:53:04 51°14.146 2°46.303 -999 -999 -999 -999 -999
2007-05-31 07:53:09 51°14.141 2°46.272 -999 -999 -999 -999 -999
2007-05-31 07:53:15 51°14.134 2°46.236 -999 -999 -999 -999 -999
2007-05-31 07:53:19 51°14.129 2°46.212 -999 -999 -999 -999 -999
2007-05-31 07:53:24 51°14.124 2°46.181 -999 -999 -999 -999 -999
2007-05-31 07:53:29 51°14.118 2°46.151 -999 -999 -999 -999 -999
2007-05-31 07:53:35 51°14.111 2°46.114 -999 -999 -999 -999 -999
2007-05-31 07:53:40 51°14.105 2°46.084 -999 -999 -999 -999 -999
2007-05-31 07:53:45 51°14.099 2°46.053 -999 -999 -999 -999 -999
2007-05-31 07:53:49 51°14.094 2°46.029 -999 -999 -999 -999 -999
2007-05-31 07:53:55 51°14.088 2°45.992 -999 -999 -999 -999 -999
2007-05-31 07:54:00 51°14.082 2°45.962 -999 -999 -999 -999 -999
2007-05-31 07:54:04 51°14.078 2°45.937 -999 -999 -999 -999 -999
2007-05-31 07:54:09 51°14.072 2°45.907 -999 -999 -999 -999 -999
2007-05-31 07:54:14 51°14.066 2°45.876 -999 -999 -999 -999 -999
2007-05-31 07:54:20 51°14.06 2°45.84 -999 -999 -999 -999 -999
2007-05-31 07:54:25 51°14.053 2°45.81 -999 -999 -999 -999 -999
2007-05-31 07:54:29 51°14.049 2°45.785 -999 -999 -999 -999 -999
2007-05-31 07:54:35 51°14.042 2°45.749 -999 -999 -999 -999 -999
2007-05-31 07:54:39 51°14.037 2°45.724 -999 -999 -999 -999 -999
2007-05-31 07:54:45 51°14.03 2°45.688 -999 -999 -999 -999 -999
2007-05-31 07:54:49 51°14.026 2°45.663 -999 -999 -999 -999 -999
2007-05-31 07:54:55 51°14.019 2°45.627 -999 -999 -999 -999 -999
2007-05-31 07:54:59 51°14.014 2°45.603 -999 -999 -999 -999 -999
2007-05-31 07:55:04 51°14.008 2°45.572 -999 -999 -999 -999 -999
2007-05-31 07:55:10 51°14.001 2°45.536 -999 -999 -999 -999 -999
2007-05-31 07:55:15 51°13.996 2°45.506 -999 -999 -999 -999 -999
2007-05-31 07:55:20 51°13.99 2°45.475 -999 -999 -999 -999 -999
2007-05-31 07:55:24 51°13.985 2°45.451 -999 -999 -999 -999 -999
2007-05-31 07:55:29 51°13.98 2°45.42 -999 -999 -999 -999 -999
2007-05-31 07:55:35 51°13.973 2°45.384 -999 -999 -999 -999 -999
2007-05-31 07:55:40 51°13.967 2°45.354 -999 -999 -999 -999 -999
2007-05-31 07:55:44 51°13.962 2°45.33 -999 -999 -999 -999 -999
2007-05-31 07:55:49 51°13.956 2°45.299 -999 -999 -999 -999 -999
2007-05-31 07:55:55 51°13.949 2°45.263 -999 -999 -999 -999 -999
2007-05-31 07:56:00 51°13.943 2°45.232 -999 -999 -999 -999 -999
2007-05-31 07:56:05 51°13.937 2°45.202 -999 -999 -999 -999 -999
2007-05-31 07:56:09 51°13.933 2°45.178 -999 -999 -999 -999 -999
2007-05-31 07:56:15 51°13.926 2°45.141 -999 -999 -999 -999 -999
2007-05-31 07:56:20 51°13.92 2°45.111 -999 -999 -999 -999 -999
2007-05-31 07:56:25 51°13.914 2°45.08 -999 -999 -999 -999 -999
2007-05-31 07:56:29 51°13.91 2°45.056 -999 -999 -999 -999 -999
2007-05-31 07:56:35 51°13.902 2°45.02 -999 -999 -999 -999 -999
2007-05-31 07:56:39 51°13.898 2°44.996 -999 -999 -999 -999 -999
2007-05-31 07:56:45 51°13.891 2°44.959 -999 -999 -999 -999 -999
2007-05-31 07:56:49 51°13.886 2°44.935 -999 -999 -999 -999 -999
2007-05-31 07:56:55 51°13.879 2°44.898 -999 -999 -999 -999 -999
2007-05-31 07:56:59 51°13.875 2°44.874 -999 -999 -999 -999 -999
2007-05-31 07:57:05 51°13.868 2°44.838 -999 -999 -999 -999 -999
2007-05-31 07:57:09 51°13.863 2°44.814 -999 -999 -999 -999 -999
2007-05-31 07:57:15 51°13.856 2°44.777 -999 -999 -999 -999 -999
2007-05-31 07:57:19 51°13.852 2°44.753 -999 -999 -999 -999 -999
2007-05-31 07:57:24 51°13.846 2°44.723 -999 -999 -999 -999 -999
2007-05-31 07:57:30 51°13.839 2°44.687 -999 -999 -999 -999 -999
2007-05-31 07:57:35 51°13.833 2°44.657 -999 -999 -999 -999 -999
2007-05-31 07:57:40 51°13.828 2°44.627 -999 -999 -999 -999 -999
2007-05-31 07:57:44 51°13.823 2°44.603 -999 -999 -999 -999 -999
2007-05-31 07:57:50 51°13.816 2°44.567 -999 -999 -999 -999 -999
2007-05-31 07:57:55 51°13.811 2°44.537 -999 -999 -999 -999 -999
2007-05-31 07:58:00 51°13.805 2°44.507 -999 -999 -999 -999 -999
2007-05-31 07:58:04 51°13.8 2°44.484 -999 -999 -999 -999 -999
2007-05-31 07:58:09 51°13.795 2°44.454 -999 -999 -999 -999 -999
2007-05-31 07:58:14 51°13.789 2°44.424 -999 -999 -999 -999 -999
2007-05-31 07:58:20 51°13.783 2°44.389 -999 -999 -999 -999 -999
2007-05-31 07:58:25 51°13.777 2°44.359 -999 -999 -999 -999 -999
2007-05-31 07:58:29 51°13.773 2°44.336 -999 -999 -999 -999 -999
2007-05-31 07:58:34 51°13.767 2°44.306 -999 -999 -999 -999 -999
2007-05-31 07:58:40 51°13.76 2°44.271 -999 -999 -999 -999 -999
2007-05-31 07:58:45 51°13.755 2°44.242 -999 -999 -999 -999 -999
2007-05-31 07:58:49 51°13.75 2°44.219 -999 -999 -999 -999 -999
2007-05-31 07:58:55 51°13.743 2°44.184 -999 -999 -999 -999 -999
2007-05-31 07:58:59 51°13.739 2°44.16 -999 -999 -999 -999 -999
2007-05-31 07:59:05 51°13.732 2°44.126 -999 -999 -999 -999 -999
2007-05-31 07:59:10 51°13.726 2°44.096 -999 -999 -999 -999 -999
2007-05-31 07:59:15 51°13.721 2°44.067 -999 -999 -999 -999 -999
2007-05-31 07:59:19 51°13.716 2°44.044 -999 -999 -999 -999 -999
2007-05-31 07:59:25 51°13.709 2°44.009 -999 -999 -999 -999 -999
2007-05-31 07:59:29 51°13.704 2°43.986 -999 -999 -999 -999 -999
2007-05-31 07:59:35 51°13.698 2°43.952 -999 -999 -999 -999 -999
2007-05-31 07:59:40 51°13.693 2°43.922 -999 -999 -999 -999 -999
2007-05-31 07:59:44 51°13.688 2°43.899 -999 -999 -999 -999 -999
2007-05-31 07:59:50 51°13.683 2°43.864 -999 -999 -999 -999 -999
2007-05-31 07:59:55 51°13.678 2°43.835 -999 -999 -999 -999 -999
2007-05-31 07:59:59 51°13.674 2°43.811 -999 -999 -999 -999 -999
2007-05-31 08:00:04 51°13.67 2°43.781 -999 -999 -999 -999 -999
2007-05-31 08:00:10 51°13.665 2°43.745 -999 -999 -999 -999 -999
2007-05-31 08:00:15 51°13.661 2°43.715 -999 -999 -999 -999 -999
2007-05-31 08:00:20 51°13.657 2°43.685 -999 -999 -999 -999 -999
2007-05-31 08:00:25 51°13.652 2°43.654 -999 -999 -999 -999 -999
2007-05-31 08:00:29 51°13.648 2°43.63 -999 -999 -999 -999 -999
2007-05-31 08:00:35 51°13.642 2°43.594 -999 -999 -999 -999 -999
2007-05-31 08:00:40 51°13.637 2°43.564 -999 -999 -999 -999 -999
2007-05-31 08:00:45 51°13.631 2°43.534 -999 -999 -999 -999 -999
2007-05-31 08:00:49 51°13.627 2°43.511 -999 -999 -999 -999 -999
2007-05-31 08:00:54 51°13.621 2°43.481 -999 -999 -999 -999 -999
2007-05-31 08:01:00 51°13.614 2°43.445 -999 -999 -999 -999 -999
2007-05-31 08:01:05 51°13.608 2°43.415 -999 -999 -999 -999 -999
2007-05-31 08:01:09 51°13.604 2°43.391 -999 -999 -999 -999 -999
2007-05-31 08:01:15 51°13.597 2°43.355 -999 -999 -999 -999 -999
2007-05-31 08:01:19 51°13.593 2°43.331 -999 -999 -999 -999 -999
2007-05-31 08:01:25 51°13.587 2°43.295 -999 -999 -999 -999 -999
2007-05-31 08:01:30 51°13.582 2°43.265 -999 -999 -999 -999 -999
2007-05-31 08:01:35 51°13.576 2°43.235 -999 -999 -999 -999 -999
2007-05-31 08:01:39 51°13.572 2°43.211 -999 -999 -999 -999 -999
2007-05-31 08:01:45 51°13.565 2°43.175 -999 -999 -999 -999 -999
2007-05-31 08:01:50 51°13.56 2°43.145 -999 -999 -999 -999 -999
2007-05-31 08:01:55 51°13.554 2°43.115 -999 -999 -999 -999 -999
2007-05-31 08:02:00 51°13.549 2°43.085 -999 -999 -999 -999 -999
2007-05-31 08:02:04 51°13.545 2°43.062 -999 -999 -999 -999 -999
2007-05-31 08:02:10 51°13.538 2°43.026 -999 -999 -999 -999 -999
2007-05-31 08:02:15 51°13.533 2°42.996 -999 -999 -999 -999 -999
2007-05-31 08:02:20 51°13.527 2°42.966 -999 -999 -999 -999 -999
2007-05-31 08:02:24 51°13.523 2°42.942 -999 -999 -999 -999 -999
2007-05-31 08:02:29 51°13.518 2°42.912 -999 -999 -999 -999 -999
2007-05-31 08:02:35 51°13.511 2°42.876 -999 -999 -999 -999 -999
2007-05-31 08:02:40 51°13.506 2°42.846 -999 -999 -999 -999 -999
2007-05-31 08:02:45 51°13.5 2°42.816 -999 -999 -999 -999 -999
2007-05-31 08:02:49 51°13.496 2°42.792 -999 -999 -999 -999 -999
2007-05-31 08:02:55 51°13.489 2°42.756 -999 -999 -999 -999 -999
2007-05-31 08:03:00 51°13.484 2°42.726 -999 -999 -999 -999 -999
2007-05-31 08:03:05 51°13.478 2°42.696 -999 -999 -999 -999 -999
2007-05-31 08:03:09 51°13.473 2°42.672 -999 -999 -999 -999 -999
2007-05-31 08:03:15 51°13.467 2°42.636 -999 -999 -999 -999 -999
2007-05-31 08:03:20 51°13.461 2°42.606 -999 -999 -999 -999 -999
2007-05-31 08:03:25 51°13.456 2°42.576 -999 -999 -999 -999 -999
2007-05-31 08:03:29 51°13.452 2°42.552 -999 -999 -999 -999 -999
2007-05-31 08:03:35 51°13.445 2°42.516 -999 -999 -999 -999 -999
2007-05-31 08:03:40 51°13.44 2°42.486 -999 -999 -999 -999 -999
2007-05-31 08:03:45 51°13.434 2°42.456 -999 -999 -999 -999 -999
2007-05-31 08:03:49 51°13.429 2°42.432 -999 -999 -999 -999 -999
2007-05-31 08:03:55 51°13.422 2°42.396 -999 -999 -999 -999 -999
2007-05-31 08:03:59 51°13.418 2°42.372 -999 -999 -999 -999 -999
2007-05-31 08:04:05 51°13.411 2°42.336 -999 -999 -999 -999 -999
2007-05-31 08:04:10 51°13.405 2°42.306 -999 -999 -999 -999 -999
2007-05-31 08:04:15 51°13.399 2°42.276 -999 -999 -999 -999 -999
2007-05-31 08:04:20 51°13.393 2°42.246 -999 -999 -999 -999 -999
2007-05-31 08:04:25 51°13.387 2°42.216 -999 -999 -999 -999 -999
2007-05-31 08:04:30 51°13.381 2°42.186 -999 -999 -999 -999 -999
2007-05-31 08:04:35 51°13.375 2°42.156 -999 -999 -999 -999 -999
2007-05-31 08:04:40 51°13.369 2°42.125 -999 -999 -999 -999 -999
2007-05-31 08:04:44 51°13.365 2°42.101 -999 -999 -999 -999 -999
2007-05-31 08:04:49 51°13.359 2°42.071 -999 -999 -999 -999 -999
2007-05-31 08:04:55 51°13.352 2°42.035 -999 -999 -999 -999 -999
2007-05-31 08:05:00 51°13.346 2°42.004 -999 -999 -999 -999 -999
2007-05-31 08:05:05 51°13.34 2°41.974 -999 -999 -999 -999 -999
2007-05-31 08:05:09 51°13.335 2°41.95 -999 -999 -999 -999 -999
2007-05-31 08:05:15 51°13.328 2°41.913 -999 -999 -999 -999 -999
2007-05-31 08:05:20 51°13.323 2°41.883 -999 -999 -999 -999 -999
2007-05-31 08:05:25 51°13.317 2°41.853 -999 -999 -999 -999 -999
2007-05-31 08:05:29 51°13.312 2°41.828 -999 -999 -999 -999 -999
2007-05-31 08:05:35 51°13.305 2°41.792 -999 -999 -999 -999 -999
2007-05-31 08:05:40 51°13.3 2°41.761 -999 -999 -999 -999 -999
2007-05-31 08:05:45 51°13.294 2°41.731 -999 -999 -999 -999 -999
2007-05-31 08:05:50 51°13.289 2°41.7 -999 -999 -999 -999 -999
2007-05-31 08:05:55 51°13.283 2°41.67 -999 -999 -999 -999 -999
2007-05-31 08:06:00 51°13.277 2°41.639 -999 -999 -999 -999 -999
2007-05-31 08:06:05 51°13.271 2°41.609 -999 -999 -999 -999 -999
2007-05-31 08:06:09 51°13.267 2°41.585 -999 -999 -999 -999 -999
2007-05-31 08:06:15 51°13.26 2°41.548 -999 -999 -999 -999 -999
2007-05-31 08:06:20 51°13.254 2°41.518 -999 -999 -999 -999 -999
2007-05-31 08:06:24 51°13.249 2°41.493 -999 -999 -999 -999 -999
2007-05-31 08:06:30 51°13.242 2°41.457 -999 -999 -999 -999 -999
2007-05-31 08:06:35 51°13.236 2°41.427 -999 -999 -999 -999 -999
2007-05-31 08:06:39 51°13.232 2°41.402 -999 -999 -999 -999 -999
2007-05-31 08:06:44 51°13.226 2°41.372 -999 -999 -999 -999 -999
2007-05-31 08:06:50 51°13.219 2°41.335 -999 -999 -999 -999 -999
2007-05-31 08:06:55 51°13.213 2°41.305 -999 -999 -999 -999 -999
2007-05-31 08:07:00 51°13.207 2°41.275 -999 -999 -999 -999 -999
2007-05-31 08:07:05 51°13.201 2°41.245 -999 -999 -999 -999 -999
2007-05-31 08:07:09 51°13.197 2°41.22 -999 -999 -999 -999 -999
2007-05-31 08:07:15 51°13.189 2°41.184 -999 -999 -999 -999 -999
2007-05-31 08:07:20 51°13.183 2°41.154 -999 -999 -999 -999 -999
2007-05-31 08:07:24 51°13.178 2°41.13 -999 -999 -999 -999 -999
2007-05-31 08:07:29 51°13.173 2°41.099 -999 -999 -999 -999 -999
2007-05-31 08:07:34 51°13.166 2°41.069 -999 -999 -999 -999 -999
2007-05-31 08:07:40 51°13.159 2°41.033 -999 -999 -999 -999 -999
2007-05-31 08:07:45 51°13.153 2°41.003 -999 -999 -999 -999 -999
2007-05-31 08:07:49 51°13.149 2°40.978 -999 -999 -999 -999 -999
2007-05-31 08:07:55 51°13.142 2°40.942 -999 -999 -999 -999 -999
2007-05-31 08:08:00 51°13.136 2°40.911 -999 -999 -999 -999 -999
2007-05-31 08:08:05 51°13.13 2°40.881 -999 -999 -999 -999 -999
2007-05-31 08:08:09 51°13.126 2°40.857 -999 -999 -999 -999 -999
2007-05-31 08:08:15 51°13.119 2°40.82 -999 -999 -999 -999 -999
2007-05-31 08:08:19 51°13.114 2°40.796 -999 -999 -999 -999 -999
2007-05-31 08:08:25 51°13.107 2°40.759 -999 -999 -999 -999 -999
2007-05-31 08:08:30 51°13.101 2°40.729 -999 -999 -999 -999 -999
2007-05-31 08:08:35 51°13.096 2°40.699 -999 -999 -999 -999 -999
2007-05-31 08:08:40 51°13.09 2°40.668 -999 -999 -999 -999 -999
2007-05-31 08:08:45 51°13.084 2°40.638 -999 -999 -999 -999 -999
2007-05-31 08:08:50 51°13.078 2°40.608 -999 -999 -999 -999 -999
2007-05-31 08:08:55 51°13.072 2°40.577 -999 -999 -999 -999 -999
2007-05-31 08:09:00 51°13.066 2°40.547 -999 -999 -999 -999 -999
2007-05-31 08:09:04 51°13.062 2°40.523 -999 -999 -999 -999 -999
2007-05-31 08:09:10 51°13.054 2°40.487 -999 -999 -999 -999 -999
2007-05-31 08:09:15 51°13.048 2°40.456 -999 -999 -999 -999 -999
2007-05-31 08:09:20 51°13.042 2°40.426 -999 -999 -999 -999 -999
2007-05-31 08:09:25 51°13.037 2°40.396 -999 -999 -999 -999 -999
2007-05-31 08:09:29 51°13.032 2°40.371 -999 -999 -999 -999 -999
2007-05-31 08:09:35 51°13.025 2°40.335 -999 -999 -999 -999 -999
2007-05-31 08:09:40 51°13.019 2°40.305 -999 -999 -999 -999 -999
2007-05-31 08:09:45 51°13.013 2°40.275 -999 -999 -999 -999 -999
2007-05-31 08:09:49 51°13.008 2°40.251 -999 -999 -999 -999 -999
2007-05-31 08:09:55 51°13 2°40.215 -999 -999 -999 -999 -999
2007-05-31 08:10:00 51°12.993 2°40.185 -999 -999 -999 -999 -999
2007-05-31 08:10:05 51°12.986 2°40.155 -999 -999 -999 -999 -999
2007-05-31 08:10:09 51°12.981 2°40.131 -999 -999 -999 -999 -999
2007-05-31 08:10:15 51°12.973 2°40.096 -999 -999 -999 -999 -999
2007-05-31 08:10:20 51°12.966 2°40.066 -999 -999 -999 -999 -999
2007-05-31 08:10:25 51°12.959 2°40.036 -999 -999 -999 -999 -999
2007-05-31 08:10:29 51°12.953 2°40.012 -999 -999 -999 -999 -999
2007-05-31 08:10:35 51°12.945 2°39.976 -999 -999 -999 -999 -999
2007-05-31 08:10:39 51°12.94 2°39.952 -999 -999 -999 -999 -999
2007-05-31 08:10:45 51°12.931 2°39.917 -999 -999 -999 -999 -999
2007-05-31 08:10:50 51°12.924 2°39.887 -999 -999 -999 -999 -999
2007-05-31 08:10:55 51°12.916 2°39.858 -999 -999 -999 -999 -999
2007-05-31 08:11:00 51°12.907 2°39.83 -999 -999 -999 -999 -999
2007-05-31 08:11:04 51°12.9 2°39.807 -999 -999 -999 -999 -999
2007-05-31 08:11:10 51°12.888 2°39.774 -999 -999 -999 -999 -999
2007-05-31 08:11:15 51°12.878 2°39.747 -999 -999 -999 -999 -999
2007-05-31 08:11:20 51°12.867 2°39.72 -999 -999 -999 -999 -999
2007-05-31 08:11:24 51°12.859 2°39.698 -999 -999 -999 -999 -999
2007-05-31 08:11:30 51°12.846 2°39.666 -999 -999 -999 -999 -999
2007-05-31 08:11:35 51°12.835 2°39.639 -999 -999 -999 -999 -999
2007-05-31 08:11:40 51°12.825 2°39.613 -999 -999 -999 -999 -999
2007-05-31 08:11:45 51°12.814 2°39.586 -999 -999 -999 -999 -999
2007-05-31 08:11:49 51°12.805 2°39.564 -999 -999 -999 -999 -999
2007-05-31 08:11:55 51°12.792 2°39.533 -999 -999 -999 -999 -999
2007-05-31 08:12:00 51°12.782 2°39.506 -999 -999 -999 -999 -999
2007-05-31 08:12:05 51°12.771 2°39.479 -999 -999 -999 -999 -999
2007-05-31 08:12:09 51°12.762 2°39.457 -999 -999 -999 -999 -999
2007-05-31 08:12:15 51°12.749 2°39.426 -999 -999 -999 -999 -999
2007-05-31 08:12:20 51°12.738 2°39.399 -999 -999 -999 -999 -999
2007-05-31 08:12:25 51°12.728 2°39.373 -999 -999 -999 -999 -999
2007-05-31 08:12:30 51°12.717 2°39.346 -999 -999 -999 -999 -999
2007-05-31 08:12:35 51°12.706 2°39.319 -999 -999 -999 -999 -999
2007-05-31 08:12:40 51°12.695 2°39.292 -999 -999 -999 -999 -999
2007-05-31 08:12:45 51°12.684 2°39.267 -999 -999 -999 -999 -999
2007-05-31 08:12:49 51°12.674 2°39.247 -999 -999 -999 -999 -999
2007-05-31 08:12:55 51°12.659 2°39.217 -999 -999 -999 -999 -999
2007-05-31 08:13:00 51°12.647 2°39.192 -999 -999 -999 -999 -999
2007-05-31 08:13:05 51°12.633 2°39.169 -999 -999 -999 -999 -999
2007-05-31 08:13:10 51°12.621 2°39.145 -999 -999 -999 -999 -999
2007-05-31 08:13:15 51°12.607 2°39.121 -999 -999 -999 -999 -999
2007-05-31 08:13:19 51°12.597 2°39.102 -999 -999 -999 -999 -999
2007-05-31 08:13:24 51°12.583 2°39.078 -999 -999 -999 -999 -999
2007-05-31 08:13:30 51°12.567 2°39.05 -999 -999 -999 -999 -999
2007-05-31 08:13:35 51°12.554 2°39.027 -999 -999 -999 -999 -999
2007-05-31 08:13:40 51°12.541 2°39.003 -999 -999 -999 -999 -999
2007-05-31 08:13:45 51°12.528 2°38.98 -999 -999 -999 -999 -999
2007-05-31 08:13:49 51°12.517 2°38.961 -999 -999 -999 -999 -999
2007-05-31 08:13:55 51°12.501 2°38.933 -999 -999 -999 -999 -999
2007-05-31 08:14:00 51°12.488 2°38.909 -999 -999 -999 -999 -999
2007-05-31 08:14:04 51°12.477 2°38.89 -999 -999 -999 -999 -999
2007-05-31 08:14:09 51°12.464 2°38.867 -999 -999 -999 -999 -999
2007-05-31 08:14:14 51°12.451 2°38.844 -999 -999 -999 -999 -999
2007-05-31 08:14:20 51°12.435 2°38.816 -999 -999 -999 -999 -999
2007-05-31 08:14:25 51°12.422 2°38.792 -999 -999 -999 -999 -999
2007-05-31 08:14:29 51°12.411 2°38.774 -999 -999 -999 -999 -999
2007-05-31 08:14:35 51°12.395 2°38.745 -999 -999 -999 -999 -999
2007-05-31 08:14:40 51°12.382 2°38.721 -999 -999 -999 -999 -999
2007-05-31 08:14:45 51°12.369 2°38.698 -999 -999 -999 -999 -999
2007-05-31 08:14:49 51°12.359 2°38.679 -999 -999 -999 -999 -999
2007-05-31 08:14:55 51°12.343 2°38.65 -999 -999 -999 -999 -999
2007-05-31 08:14:59 51°12.333 2°38.631 -999 -999 -999 -999 -999
2007-05-31 08:15:05 51°12.317 2°38.603 -999 -999 -999 -999 -999
2007-05-31 08:15:10 51°12.304 2°38.579 -999 -999 -999 -999 -999
2007-05-31 08:15:15 51°12.291 2°38.556 -999 -999 -999 -999 -999
2007-05-31 08:15:20 51°12.278 2°38.532 -999 -999 -999 -999 -999
2007-05-31 08:15:25 51°12.265 2°38.508 -999 -999 -999 -999 -999
2007-05-31 08:15:29 51°12.254 2°38.49 -999 -999 -999 -999 -999
2007-05-31 08:15:35 51°12.239 2°38.461 -999 -999 -999 -999 -999
2007-05-31 08:15:40 51°12.226 2°38.438 -999 -999 -999 -999 -999
2007-05-31 08:15:44 51°12.215 2°38.419 -999 -999 -999 -999 -999
2007-05-31 08:15:50 51°12.2 2°38.391 -999 -999 -999 -999 -999
2007-05-31 08:15:55 51°12.187 2°38.367 -999 -999 -999 -999 -999
2007-05-31 08:16:00 51°12.174 2°38.344 -999 -999 -999 -999 -999
2007-05-31 08:16:05 51°12.161 2°38.32 -999 -999 -999 -999 -999
2007-05-31 08:16:09 51°12.15 2°38.301 -999 -999 -999 -999 -999
2007-05-31 08:16:15 51°12.135 2°38.273 -999 -999 -999 -999 -999
2007-05-31 08:16:20 51°12.122 2°38.249 -999 -999 -999 -999 -999
2007-05-31 08:16:25 51°12.109 2°38.226 -999 -999 -999 -999 -999
2007-05-31 08:16:29 51°12.098 2°38.207 -999 -999 -999 -999 -999
2007-05-31 08:16:35 51°12.083 2°38.179 -999 -999 -999 -999 -999
2007-05-31 08:16:40 51°12.07 2°38.156 -999 -999 -999 -999 -999
2007-05-31 08:16:45 51°12.056 2°38.132 -999 -999 -999 -999 -999
2007-05-31 08:16:49 51°12.046 2°38.114 -999 -999 -999 -999 -999
2007-05-31 08:16:55 51°12.03 2°38.085 -999 -999 -999 -999 -999
2007-05-31 08:17:00 51°12.018 2°38.062 -999 -999 -999 -999 -999
2007-05-31 08:17:05 51°12.005 2°38.038 -999 -999 -999 -999 -999
2007-05-31 08:17:09 51°11.994 2°38.019 -999 -999 -999 -999 -999
2007-05-31 08:17:15 51°11.979 2°37.991 -999 -999 -999 -999 -999
2007-05-31 08:17:19 51°11.969 2°37.972 -999 -999 -999 -999 -999
2007-05-31 08:17:25 51°11.953 2°37.944 -999 -999 -999 -999 -999
2007-05-31 08:17:30 51°11.94 2°37.92 -999 -999 -999 -999 -999
2007-05-31 08:17:35 51°11.927 2°37.896 -999 -999 -999 -999 -999
2007-05-31 08:17:39 51°11.917 2°37.878 -999 -999 -999 -999 -999
2007-05-31 08:17:45 51°11.901 2°37.85 -999 -999 -999 -999 -999
2007-05-31 08:17:50 51°11.889 2°37.826 -999 -999 -999 -999 -999
2007-05-31 08:17:55 51°11.875 2°37.803 -999 -999 -999 -999 -999
2007-05-31 08:18:00 51°11.862 2°37.781 -999 -999 -999 -999 -999
2007-05-31 08:18:04 51°11.851 2°37.763 -999 -999 -999 -999 -999
2007-05-31 08:18:10 51°11.834 2°37.737 -999 -999 -999 -999 -999
2007-05-31 08:18:15 51°11.82 2°37.715 -999 -999 -999 -999 -999
2007-05-31 08:18:20 51°11.806 2°37.694 -999 -999 -999 -999 -999
2007-05-31 08:18:24 51°11.795 2°37.677 -999 -999 -999 -999 -999
2007-05-31 08:18:29 51°11.781 2°37.656 -999 -999 -999 -999 -999
2007-05-31 08:18:35 51°11.763 2°37.631 -999 -999 -999 -999 -999
2007-05-31 08:18:40 51°11.748 2°37.611 -999 -999 -999 -999 -999
2007-05-31 08:18:45 51°11.733 2°37.59 -999 -999 -999 -999 -999
2007-05-31 08:18:49 51°11.721 2°37.574 -999 -999 -999 -999 -999
2007-05-31 08:18:55 51°11.704 2°37.549 -999 -999 -999 -999 -999
2007-05-31 08:19:00 51°11.689 2°37.528 -999 -999 -999 -999 -999
2007-05-31 08:19:05 51°11.674 2°37.508 -999 -999 -999 -999 -999
2007-05-31 08:19:09 51°11.663 2°37.491 -999 -999 -999 -999 -999
2007-05-31 08:19:15 51°11.645 2°37.466 -999 -999 -999 -999 -999
2007-05-31 08:19:20 51°11.63 2°37.446 -999 -999 -999 -999 -999
2007-05-31 08:19:25 51°11.615 2°37.425 -999 -999 -999 -999 -999
2007-05-31 08:19:29 51°11.603 2°37.409 -999 -999 -999 -999 -999
2007-05-31 08:19:35 51°11.585 2°37.384 -999 -999 -999 -999 -999
2007-05-31 08:19:40 51°11.57 2°37.364 -999 -999 -999 -999 -999
2007-05-31 08:19:45 51°11.556 2°37.343 -999 -999 -999 -999 -999
2007-05-31 08:19:50 51°11.541 2°37.323 -999 -999 -999 -999 -999
2007-05-31 08:19:55 51°11.526 2°37.302 -999 -999 -999 -999 -999
2007-05-31 08:19:59 51°11.515 2°37.286 -999 -999 -999 -999 -999
2007-05-31 08:20:04 51°11.5 2°37.265 -999 -999 -999 -999 -999
2007-05-31 08:20:10 51°11.483 2°37.24 -999 -999 -999 -999 -999
2007-05-31 08:20:15 51°11.468 2°37.22 -999 -999 -999 -999 -999
2007-05-31 08:20:20 51°11.453 2°37.2 -999 -999 -999 -999 -999
2007-05-31 08:20:25 51°11.436 2°37.183 -999 -999 -999 -999 -999
2007-05-31 08:20:30 51°11.421 2°37.165 -999 -999 -999 -999 -999
2007-05-31 08:20:35 51°11.404 2°37.149 -999 -999 -999 -999 -999
2007-05-31 08:20:40 51°11.388 2°37.132 -999 -999 -999 -999 -999
2007-05-31 08:20:44 51°11.374 2°37.12 -999 -999 -999 -999 -999
2007-05-31 08:20:49 51°11.357 2°37.104 -999 -999 -999 -999 -999
2007-05-31 08:20:55 51°11.337 2°37.085 -999 -999 -999 -999 -999
2007-05-31 08:21:00 51°11.32 2°37.07 -999 -999 -999 -999 -999
2007-05-31 08:21:05 51°11.303 2°37.055 -999 -999 -999 -999 -999
2007-05-31 08:21:09 51°11.289 2°37.042 -999 -999 -999 -999 -999
2007-05-31 08:21:15 51°11.269 2°37.024 -999 -999 -999 -999 -999
2007-05-31 08:21:20 51°11.252 2°37.008 -999 -999 -999 -999 -999
2007-05-31 08:21:25 51°11.235 2°36.993 -999 -999 -999 -999 -999
2007-05-31 08:21:29 51°11.221 2°36.981 -999 -999 -999 -999 -999
2007-05-31 08:21:35 51°11.201 2°36.962 -999 -999 -999 -999 -999
2007-05-31 08:21:40 51°11.184 2°36.947 -999 -999 -999 -999 -999
2007-05-31 08:21:45 51°11.167 2°36.931 -999 -999 -999 -999 -999
2007-05-31 08:21:50 51°11.15 2°36.915 -999 -999 -999 -999 -999
2007-05-31 08:21:55 51°11.133 2°36.9 -999 -999 -999 -999 -999
2007-05-31 08:22:00 51°11.116 2°36.884 -999 -999 -999 -999 -999
2007-05-31 08:22:05 51°11.099 2°36.868 -999 -999 -999 -999 -999
2007-05-31 08:22:09 51°11.086 2°36.856 -999 -999 -999 -999 -999
2007-05-31 08:22:15 51°11.065 2°36.837 -999 -999 -999 -999 -999
2007-05-31 08:22:20 51°11.048 2°36.822 -999 -999 -999 -999 -999
2007-05-31 08:22:25 51°11.03 2°36.809 -999 -999 -999 -999 -999
2007-05-31 08:22:30 51°11.012 2°36.798 -999 -999 -999 -999 -999
2007-05-31 08:22:35 51°10.994 2°36.788 -999 -999 -999 -999 -999
2007-05-31 08:22:40 51°10.976 2°36.781 -999 -999 -999 -999 -999
2007-05-31 08:22:45 51°10.957 2°36.776 -999 -999 -999 -999 -999
2007-05-31 08:22:50 51°10.938 2°36.772 -999 -999 -999 -999 -999
2007-05-31 08:22:55 51°10.919 2°36.77 -999 -999 -999 -999 -999
2007-05-31 08:23:00 51°10.9 2°36.767 -999 -999 -999 -999 -999
2007-05-31 08:23:05 51°10.881 2°36.766 -999 -999 -999 -999 -999
2007-05-31 08:23:09 51°10.866 2°36.766 -999 -999 -999 -999 -999
2007-05-31 08:23:15 51°10.843 2°36.766 -999 -999 -999 -999 -999
2007-05-31 08:23:20 51°10.824 2°36.769 -999 -999 -999 -999 -999
2007-05-31 08:23:25 51°10.806 2°36.774 -999 -999 -999 -999 -999
2007-05-31 08:23:29 51°10.791 2°36.779 -999 -999 -999 -999 -999
2007-05-31 08:23:34 51°10.773 2°36.788 -999 -999 -999 -999 -999
2007-05-31 08:23:40 51°10.753 2°36.801 -999 -999 -999 -999 -999
2007-05-31 08:23:45 51°10.737 2°36.814 -999 -999 -999 -999 -999
2007-05-31 08:23:49 51°10.724 2°36.825 -999 -999 -999 -999 -999
2007-05-31 08:23:55 51°10.705 2°36.843 -999 -999 -999 -999 -999
2007-05-31 08:24:00 51°10.689 2°36.858 -999 -999 -999 -999 -999
2007-05-31 08:24:05 51°10.674 2°36.875 -999 -999 -999 -999 -999
2007-05-31 08:24:10 51°10.659 2°36.891 -999 -999 -999 -999 -999
2007-05-31 08:24:15 51°10.644 2°36.908 -999 -999 -999 -999 -999
2007-05-31 08:24:19 51°10.632 2°36.922 -999 -999 -999 -999 -999
2007-05-31 08:24:25 51°10.614 2°36.942 -999 -999 -999 -999 -999
2007-05-31 08:24:30 51°10.599 2°36.959 -999 -999 -999 -999 -999
2007-05-31 08:24:35 51°10.584 2°36.975 -999 -999 -999 -999 -999
2007-05-31 08:24:40 51°10.569 2°36.99 -999 -999 -999 -999 -999
2007-05-31 08:24:44 51°10.556 2°37.001 -999 -999 -999 -999 -999
2007-05-31 08:24:50 51°10.537 2°37.019 -999 -999 -999 -999 -999
2007-05-31 08:24:55 51°10.521 2°37.032 -999 -999 -999 -999 -999
2007-05-31 08:25:00 51°10.505 2°37.046 -999 -999 -999 -999 -999
2007-05-31 08:25:04 51°10.491 2°37.056 -999 -999 -999 -999 -999
2007-05-31 08:25:10 51°10.47 2°37.072 -999 -999 -999 -999 -999
2007-05-31 08:25:15 51°10.452 2°37.085 -999 -999 -999 -999 -999
2007-05-31 08:25:20 51°10.434 2°37.097 -999 -999 -999 -999 -999
2007-05-31 08:25:25 51°10.415 2°37.109 -999 -999 -999 -999 -999
2007-05-31 08:25:29 51°10.401 2°37.119 -999 -999 -999 -999 -999
2007-05-31 08:25:35 51°10.379 2°37.132 -999 -999 -999 -999 -999
2007-05-31 08:25:40 51°10.361 2°37.142 -999 -999 -999 -999 -999
2007-05-31 08:25:45 51°10.343 2°37.15 -999 -999 -999 -999 -999
2007-05-31 08:25:49 51°10.328 2°37.156 -999 -999 -999 -999 -999
2007-05-31 08:25:55 51°10.306 2°37.164 -999 -999 -999 -999 -999
2007-05-31 08:26:00 51°10.287 2°37.17 -999 -999 -999 -999 -999
2007-05-31 08:26:05 51°10.269 2°37.174 -999 -999 -999 -999 -999
2007-05-31 08:26:09 51°10.254 2°37.179 -999 -999 -999 -999 -999
2007-05-31 08:26:15 51°10.231 2°37.184 -999 -999 -999 -999 -999
2007-05-31 08:26:20 51°10.212 2°37.189 -999 -999 -999 -999 -999
2007-05-31 08:26:25 51°10.193 2°37.194 -999 -999 -999 -999 -999
2007-05-31 08:26:29 51°10.178 2°37.197 -999 -999 -999 -999 -999
2007-05-31 08:26:35 51°10.155 2°37.201 -999 -999 -999 -999 -999
2007-05-31 08:26:39 51°10.14 2°37.203 -999 -999 -999 -999 -999
2007-05-31 08:26:45 51°10.117 2°37.208 -999 -999 -999 -999 -999
2007-05-31 08:26:50 51°10.098 2°37.212 -999 -999 -999 -999 -999
2007-05-31 08:26:55 51°10.079 2°37.216 -999 -999 -999 -999 -999
2007-05-31 08:27:00 51°10.06 2°37.221 -999 -999 -999 -999 -999
2007-05-31 08:27:05 51°10.042 2°37.224 -999 -999 -999 -999 -999
2007-05-31 08:27:10 51°10.023 2°37.229 -999 -999 -999 -999 -999
2007-05-31 08:27:15 51°10.004 2°37.234 -999 -999 -999 -999 -999
2007-05-31 08:27:20 51°9.985 2°37.239 -999 -999 -999 -999 -999
2007-05-31 08:27:24 51°9.97 2°37.243 -999 -999 -999 -999 -999
2007-05-31 08:27:30 51°9.947 2°37.247 -999 -999 -999 -999 -999
2007-05-31 08:27:35 51°9.928 2°37.251 -999 -999 -999 -999 -999
2007-05-31 08:27:40 51°9.909 2°37.254 -999 -999 -999 -999 -999
2007-05-31 08:27:45 51°9.891 2°37.258 -999 -999 -999 -999 -999
2007-05-31 08:27:49 51°9.875 2°37.261 -999 -999 -999 -999 -999
2007-05-31 08:27:55 51°9.852 2°37.267 -999 -999 -999 -999 -999
2007-05-31 08:28:00 51°9.834 2°37.271 -999 -999 -999 -999 -999
2007-05-31 08:28:05 51°9.815 2°37.275 -999 -999 -999 -999 -999
2007-05-31 08:28:09 51°9.8 2°37.278 -999 -999 -999 -999 -999
2007-05-31 08:28:15 51°9.777 2°37.283 -999 -999 -999 -999 -999
2007-05-31 08:28:20 51°9.758 2°37.287 -999 -999 -999 -999 -999
2007-05-31 08:28:25 51°9.739 2°37.292 -999 -999 -999 -999 -999
2007-05-31 08:28:30 51°9.72 2°37.296 -999 -999 -999 -999 -999
2007-05-31 08:28:35 51°9.701 2°37.302 -999 -999 -999 -999 -999
2007-05-31 08:28:40 51°9.682 2°37.306 -999 -999 -999 -999 -999
2007-05-31 08:28:45 51°9.663 2°37.311 -999 -999 -999 -999 -999
2007-05-31 08:28:49 51°9.648 2°37.315 -999 -999 -999 -999 -999
2007-05-31 08:28:55 51°9.625 2°37.32 -999 -999 -999 -999 -999
2007-05-31 08:29:00 51°9.606 2°37.325 -999 -999 -999 -999 -999
2007-05-31 08:29:04 51°9.591 2°37.328 -999 -999 -999 -999 -999
2007-05-31 08:29:10 51°9.569 2°37.334 -999 -999 -999 -999 -999
2007-05-31 08:29:15 51°9.55 2°37.338 -999 -999 -999 -999 -999
2007-05-31 08:29:20 51°9.531 2°37.343 -999 -999 -999 -999 -999
2007-05-31 08:29:24 51°9.516 2°37.347 -999 -999 -999 -999 -999
2007-05-31 08:29:30 51°9.494 2°37.353 -999 -999 -999 -999 -999
2007-05-31 08:29:35 51°9.475 2°37.359 -999 -999 -999 -999 -999
2007-05-31 08:29:40 51°9.457 2°37.364 -999 -999 -999 -999 -999
2007-05-31 08:29:45 51°9.44 2°37.368 -999 -999 -999 -999 -999
2007-05-31 08:29:50 51°9.424 2°37.373 -999 -999 -999 -999 -999
2007-05-31 08:29:55 51°9.409 2°37.377 -999 -999 -999 -999 -999
2007-05-31 08:30:00 51°9.395 2°37.381 -999 -999 -999 -999 -999
2007-05-31 08:30:05 51°9.383 2°37.385 -999 -999 -999 -999 -999
2007-05-31 08:30:09 51°9.375 2°37.388 -999 -999 -999 -999 -999
2007-05-31 08:30:15 51°9.363 2°37.396 -999 -999 -999 -999 -999
2007-05-31 08:30:20 51°9.354 2°37.403 -999 -999 -999 -999 -999
2007-05-31 08:30:25 51°9.347 2°37.411 -999 -999 -999 -999 -999
2007-05-31 08:30:29 51°9.341 2°37.417 -999 -999 -999 -999 -999
2007-05-31 08:30:35 51°9.334 2°37.427 -999 -999 -999 -999 -999
2007-05-31 08:30:40 51°9.33 2°37.435 -999 -999 -999 -999 -999
2007-05-31 08:30:45 51°9.325 2°37.443 -999 -999 -999 -999 -999
2007-05-31 08:30:50 51°9.322 2°37.452 -999 -999 -999 -999 -999
2007-05-31 08:30:55 51°9.32 2°37.462 -999 -999 -999 -999 -999
2007-05-31 08:30:59 51°9.318 2°37.469 -999 -999 -999 -999 -999
2007-05-31 08:31:05 51°9.317 2°37.481 -999 -999 -999 -999 -999
2007-05-31 08:31:10 51°9.317 2°37.49 -999 -999 -999 -999 -999
2007-05-31 08:31:15 51°9.318 2°37.498 -999 -999 -999 -999 -999
2007-05-31 08:31:20 51°9.32 2°37.506 -999 -999 -999 -999 -999
2007-05-31 08:31:25 51°9.322 2°37.514 -999 -999 -999 -999 -999
2007-05-31 08:31:30 51°9.324 2°37.521 -999 -999 -999 -999 -999
2007-05-31 08:31:35 51°9.328 2°37.527 -999 -999 -999 -999 -999
2007-05-31 08:31:40 51°9.332 2°37.532 -999 -999 -999 -999 -999
2007-05-31 08:31:44 51°9.335 2°37.536 -999 -999 -999 -999 -999
2007-05-31 08:31:50 51°9.339 2°37.539 -999 -999 -999 -999 -999
2007-05-31 08:31:55 51°9.343 2°37.542 -999 -999 -999 -999 -999
2007-05-31 08:32:00 51°9.347 2°37.544 -999 -999 -999 -999 -999
2007-05-31 08:32:05 51°9.35 2°37.547 -999 -999 -999 -999 -999
2007-05-31 08:32:10 51°9.354 2°37.548 -999 -999 -999 -999 -999
2007-05-31 08:32:15 51°9.357 2°37.55 -999 -999 -999 -999 -999
2007-05-31 08:32:20 51°9.36 2°37.551 -999 -999 -999 -999 -999
2007-05-31 08:32:25 51°9.363 2°37.553 -999 -999 -999 -999 -999
2007-05-31 08:32:29 51°9.366 2°37.554 -999 -999 -999 -999 -999
2007-05-31 08:32:35 51°9.37 2°37.555 -999 -999 -999 -999 -999
2007-05-31 08:32:40 51°9.373 2°37.555 -999 -999 -999 -999 -999
2007-05-31 08:32:45 51°9.375 2°37.556 -999 -999 -999 -999 -999
2007-05-31 08:32:49 51°9.378 2°37.557 -999 -999 -999 -999 -999
2007-05-31 08:32:55 51°9.381 2°37.557 -999 -999 -999 -999 -999
2007-05-31 08:33:00 51°9.384 2°37.557 -999 -999 -999 -999 -999
2007-05-31 08:33:05 51°9.386 2°37.557 -999 -999 -999 -999 -999
2007-05-31 08:33:09 51°9.388 2°37.557 -999 -999 -999 -999 -999
2007-05-31 08:33:15 51°9.391 2°37.557 -999 -999 -999 -999 -999
2007-05-31 08:33:20 51°9.394 2°37.557 -999 -999 -999 -999 -999
2007-05-31 08:33:25 51°9.396 2°37.557 -999 -999 -999 -999 -999
2007-05-31 08:33:30 51°9.399 2°37.557 -999 -999 -999 -999 -999
2007-05-31 08:33:35 51°9.401 2°37.557 -999 -999 -999 -999 -999
2007-05-31 08:33:40 51°9.403 2°37.556 -999 -999 -999 -999 -999
2007-05-31 08:33:45 51°9.405 2°37.556 -999 -999 -999 -999 -999
2007-05-31 08:33:50 51°9.408 2°37.556 -999 -999 -999 -999 -999
2007-05-31 08:33:55 51°9.41 2°37.555 -999 -999 -999 -999 -999
2007-05-31 08:34:00 51°9.412 2°37.555 -999 -999 -999 -999 -999
2007-05-31 08:34:04 51°9.413 2°37.554 -999 -999 -999 -999 -999
2007-05-31 08:34:10 51°9.416 2°37.554 -999 -999 -999 -999 -999
2007-05-31 08:34:15 51°9.418 2°37.553 -999 -999 -999 -999 -999
2007-05-31 08:34:20 51°9.42 2°37.552 -999 -999 -999 -999 -999
2007-05-31 08:34:25 51°9.421 2°37.551 -999 -999 -999 -999 -999
2007-05-31 08:34:29 51°9.423 2°37.551 -999 -999 -999 -999 -999
2007-05-31 08:34:35 51°9.425 2°37.55 -999 -999 -999 -999 -999
2007-05-31 08:34:40 51°9.427 2°37.549 -999 -999 -999 -999 -999
2007-05-31 08:34:45 51°9.428 2°37.548 -999 -999 -999 -999 -999
2007-05-31 08:34:49 51°9.43 2°37.547 -999 -999 -999 -999 -999
2007-05-31 08:34:55 51°9.432 2°37.546 -999 -999 -999 -999 -999
2007-05-31 08:35:00 51°9.433 2°37.545 -999 -999 -999 -999 -999
2007-05-31 08:35:05 51°9.435 2°37.544 -999 -999 -999 -999 -999
2007-05-31 08:35:10 51°9.436 2°37.543 -999 -999 -999 -999 -999
2007-05-31 08:35:15 51°9.438 2°37.542 -999 -999 -999 -999 -999
2007-05-31 08:35:20 51°9.439 2°37.541 -999 -999 -999 -999 -999
2007-05-31 08:35:25 51°9.44 2°37.54 -999 -999 -999 -999 -999
2007-05-31 08:35:29 51°9.441 2°37.539 -999 -999 -999 -999 -999
2007-05-31 08:35:35 51°9.443 2°37.537 -999 -999 -999 -999 -999
2007-05-31 08:35:40 51°9.444 2°37.536 -999 -999 -999 -999 -999
2007-05-31 08:35:45 51°9.446 2°37.535 -999 -999 -999 -999 -999
2007-05-31 08:35:50 51°9.447 2°37.533 -999 -999 -999 -999 -999
2007-05-31 08:35:55 51°9.45 2°37.532 -999 -999 -999 -999 -999
2007-05-31 08:35:59 51°9.451 2°37.531 -999 -999 -999 -999 -999
2007-05-31 08:36:04 51°9.454 2°37.529 -999 -999 -999 -999 -999
2007-05-31 08:36:10 51°9.458 2°37.527 -999 -999 -999 -999 -999
2007-05-31 08:36:15 51°9.461 2°37.526 -999 -999 -999 -999 -999
2007-05-31 08:36:20 51°9.465 2°37.524 -999 -999 -999 -999 -999
2007-05-31 08:36:25 51°9.469 2°37.522 -999 -999 -999 -999 -999
2007-05-31 08:36:30 51°9.474 2°37.521 -999 -999 -999 -999 -999
2007-05-31 08:36:35 51°9.48 2°37.52 -999 -999 -999 -999 -999
2007-05-31 08:36:40 51°9.485 2°37.519 -999 -999 -999 -999 -999
2007-05-31 08:36:44 51°9.49 2°37.519 -999 -999 -999 -999 -999
2007-05-31 08:36:49 51°9.496 2°37.519 -999 -999 -999 -999 -999
2007-05-31 08:36:55 51°9.503 2°37.521 -999 -999 -999 -999 -999
2007-05-31 08:37:00 51°9.509 2°37.523 -999 -999 -999 -999 -999
2007-05-31 08:37:05 51°9.515 2°37.526 -999 -999 -999 -999 -999
2007-05-31 08:37:09 51°9.519 2°37.528 -999 -999 -999 -999 -999
2007-05-31 08:37:15 51°9.525 2°37.533 -999 -999 -999 -999 -999
2007-05-31 08:37:20 51°9.53 2°37.537 -999 -999 -999 -999 -999
2007-05-31 08:37:25 51°9.535 2°37.542 -999 -999 -999 -999 -999
2007-05-31 08:37:29 51°9.538 2°37.546 -999 -999 -999 -999 -999
2007-05-31 08:37:35 51°9.543 2°37.552 -999 -999 -999 -999 -999
2007-05-31 08:37:40 51°9.546 2°37.557 -999 -999 -999 -999 -999
2007-05-31 08:37:45 51°9.549 2°37.563 -999 -999 -999 -999 -999
2007-05-31 08:37:50 51°9.552 2°37.568 -999 -999 -999 -999 -999
2007-05-31 08:37:55 51°9.555 2°37.574 -999 -999 -999 -999 -999
2007-05-31 08:38:00 51°9.558 2°37.579 -999 -999 -999 -999 -999
2007-05-31 08:38:05 51°9.56 2°37.585 -999 -999 -999 -999 -999
2007-05-31 08:38:10 51°9.562 2°37.591 -999 -999 -999 -999 -999
2007-05-31 08:38:15 51°9.564 2°37.596 -999 -999 -999 -999 -999
2007-05-31 08:38:20 51°9.566 2°37.602 -999 -999 -999 -999 -999
2007-05-31 08:38:24 51°9.567 2°37.607 -999 -999 -999 -999 -999
2007-05-31 08:38:30 51°9.569 2°37.614 -999 -999 -999 -999 -999
2007-05-31 08:38:35 51°9.57 2°37.621 -999 -999 -999 -999 -999
2007-05-31 08:38:40 51°9.571 2°37.627 -999 -999 -999 -999 -999
2007-05-31 08:38:45 51°9.571 2°37.633 -999 -999 -999 -999 -999
2007-05-31 08:38:49 51°9.572 2°37.639 -999 -999 -999 -999 -999
2007-05-31 08:38:55 51°9.572 2°37.647 -999 -999 -999 -999 -999
2007-05-31 08:39:00 51°9.573 2°37.653 -999 -999 -999 -999 -999
2007-05-31 08:39:05 51°9.573 2°37.66 -999 -999 -999 -999 -999
2007-05-31 08:39:09 51°9.572 2°37.666 -999 -999 -999 -999 -999
2007-05-31 08:39:15 51°9.572 2°37.674 -999 -999 -999 -999 -999
2007-05-31 08:39:20 51°9.571 2°37.681 -999 -999 -999 -999 -999
2007-05-31 08:39:25 51°9.57 2°37.689 -999 -999 -999 -999 -999
2007-05-31 08:39:29 51°9.569 2°37.694 -999 -999 -999 -999 -999
2007-05-31 08:39:35 51°9.568 2°37.703 -999 -999 -999 -999 -999
2007-05-31 08:39:40 51°9.567 2°37.71 -999 -999 -999 -999 -999
2007-05-31 08:39:45 51°9.567 2°37.716 -999 -999 -999 -999 -999
2007-05-31 08:39:49 51°9.566 2°37.722 -999 -999 -999 -999 -999
2007-05-31 08:39:55 51°9.565 2°37.731 -999 -999 -999 -999 -999
2007-05-31 08:40:00 51°9.564 2°37.738 -999 -999 -999 -999 -999
2007-05-31 08:40:05 51°9.564 2°37.745 -999 -999 -999 -999 -999
2007-05-31 08:40:10 51°9.563 2°37.752 -999 -999 -999 -999 -999
2007-05-31 08:40:15 51°9.563 2°37.759 -999 -999 -999 -999 -999